Weather History for Bradshaw AFB, HI

Change the Weather History Date:

Wednesday, October 2, 2013

  Actual Average Record
Temperature  
Mean Temperature 63 °F -  
Max Temperature 71 °F 69 °F 77 °F (2003)
Min Temperature 54 °F 49 °F 44 °F (1997)
Degree Days  
Heating Degree Days 2    
Growing Degree Days 13 (Base 50)    
Moisture  
Dew Point 54 °F    
Average Humidity 71    
Maximum Humidity 87    
Minimum Humidity 53    
Precipitation  
Precipitation 0.00 in - - ()
Sea Level Pressure  
Sea Level Pressure 30.28 in    
Wind  
Wind Speed 9 mph (SW)    
Max Wind Speed 15 mph    
Max Gust Speed 22 mph    
Visibility 12 miles    
Events      
Averages and records for this station are not official NWS values.
T = Trace of Precipitation, MM = Missing Value Source: NWS Daily Summary

Daily Weather History Graph

Daily Weather History Graph

Search for Another Location

Airport:

Trip Planner

Search our weather history database for the weather conditions in past years. The results will help you decide how hot, cold, wet, or windy it might be!

Date:

Astronomy

Oct. 02, 2013 Rise Set
Actual Time 6:13 AM HST 6:09 PM HST
Civil Twilight 5:51 AM HST 6:31 PM HST
Nautical Twilight 5:25 AM HST 6:56 PM HST
Astronomical Twilight 5:00 AM HST 7:22 PM HST
Moon 4:11 AM HST (10/2) 4:41 PM HST (10/2)
Length of Visible Light 12h 39m
Length of Day
11h 55m
Waning Crescent, 5% of the Moon is Illuminated
Oct 2
Waning Crescent
Oct 4
New
Oct 11
First Quarter
Oct 18
Full
Oct 26
Last Quarter

Hourly Weather History & Observations

Time (HST) Temp. Dew Point Humidity Pressure Visibility Wind Dir Wind Speed Gust Speed Precip Events Conditions
11:49 AM 69.8 °F 55.4 °F 60% 30.30 in 12.0 mi WSW 10.4 mph 21.9 mph N/A   Partly Cloudy
11:54 AM 69.8 °F 55.4 °F 60% 30.30 in 12.0 mi WSW 10.4 mph 19.6 mph N/A   Partly Cloudy
11:59 AM 68.0 °F 55.4 °F 64% 30.30 in 12.0 mi WSW 12.7 mph 19.6 mph N/A   Partly Cloudy
12:04 PM 69.8 °F 55.4 °F 60% 30.29 in 12.0 mi WSW 12.7 mph 18.4 mph N/A   Partly Cloudy
12:09 PM 69.8 °F 53.6 °F 56% 30.29 in 12.0 mi WSW 10.4 mph 16.1 mph N/A   Partly Cloudy
12:14 PM 69.8 °F 53.6 °F 56% 30.29 in 12.0 mi WSW 9.2 mph - N/A   Partly Cloudy
12:19 PM 71.6 °F 53.6 °F 53% 30.29 in 12.0 mi West 11.5 mph 21.9 mph N/A   Partly Cloudy
12:24 PM 69.8 °F 55.4 °F 60% 30.29 in 12.0 mi WSW 9.2 mph 21.9 mph N/A   Partly Cloudy
12:56 PM 71.1 °F 54.1 °F 55% 30.28 in 12.0 mi WSW 11.5 mph 18.4 mph N/A   Partly Cloudy
1:56 PM 69.4 °F 56.1 °F 62% 30.26 in 12.0 mi WSW 15.0 mph 21.9 mph N/A   Partly Cloudy
2:56 PM 66.9 °F 56.5 °F 69% 30.25 in 12.0 mi WSW 12.7 mph 18.4 mph N/A   Clear
3:21 PM 66.2 °F 55.4 °F 68% 30.26 in 12.0 mi WSW 8.1 mph 18.4 mph N/A   Mostly Cloudy
3:56 PM 62.2 °F 57.0 °F 83% 30.27 in 12.0 mi WSW 3.5 mph - N/A   Overcast
4:01 PM 62.6 °F 57.2 °F 82% 30.27 in 12.0 mi West 4.6 mph - N/A   Overcast
4:16 PM 64.4 °F 57.2 °F 77% 30.26 in 12.0 mi WSW 2.3 mph - N/A   Overcast
4:41 PM 62.6 °F 57.2 °F 82% 30.26 in 12.0 mi West 4.6 mph - N/A   Mostly Cloudy
4:56 PM 62.8 °F 56.3 °F 79% 30.27 in 12.0 mi West 3.5 mph - N/A   Mostly Cloudy
5:16 PM 62.6 °F 57.2 °F 82% 30.27 in 12.0 mi West 2.3 mph - N/A   Mostly Cloudy
5:21 PM 62.6 °F 55.4 °F 77% 30.27 in 12.0 mi SSW 4.6 mph - N/A   Overcast
5:46 PM 62.6 °F 53.6 °F 72% 30.27 in 12.0 mi SE 3.5 mph - N/A   Scattered Clouds
5:56 PM 61.3 °F 53.2 °F 75% 30.27 in 12.0 mi SSE 5.8 mph - N/A   Partly Cloudy
6:56 PM 57.0 °F 51.1 °F 81% 30.28 in 12.0 mi SE 5.8 mph - N/A   Mostly Cloudy
7:56 PM 58.1 °F 51.1 °F 77% 30.29 in 12.0 mi SE 9.2 mph - N/A   Mostly Cloudy
8:56 PM 56.5 °F 51.3 °F 83% 30.31 in 12.0 mi SE 11.5 mph 19.6 mph N/A   Mostly Cloudy
9:56 PM 56.5 °F 51.6 °F 84% 30.31 in 12.0 mi SE 12.7 mph 19.6 mph N/A   Scattered Clouds
10:56 PM 55.2 °F 51.3 °F 87% 30.31 in 12.0 mi SE 9.2 mph 17.3 mph N/A   Clear
11:56 PM 54.0 °F 49.6 °F 85% 30.29 in 12.0 mi ESE 6.9 mph - N/A   Clear